Location: *
(51.1248°S, 108.4023°W)
Time: 03:10:34
(UTC+00:00)

Cosmos 494 Rocket - Pass Details

Date: 15 June 2021
Orbit: 742 x 770 km, 74.1° (Epoch: 31 July)

Event Time Altitude Azimuth Distance (km) Brightness Sun altitude
Exits shadow 12:25:46 53° 194° (SSW) 965 4.3 -25.4°
Maximum altitude 12:27:04 82° 115° (ESE) 797 4.0 -25.2°
Drops below altitude 10° 12:32:23 10° 26° (NNE) 2,325 6.9 -24.4°
Sets 12:34:44 0° 25° (NNE) 3,243 7.7 -24.0°
